Year,Month,Day,Hour,Minute,Value (Times are PST for temperature in C)
2008,07,11,00,00,12.30
2008,07,11,00,01,12.30
2008,07,11,00,02,12.30
2008,07,11,00,03,12.30
2008,07,11,00,04,12.30
2008,07,11,00,05,12.30
2008,07,11,00,06,12.30
2008,07,11,00,07,12.30
2008,07,11,00,08,12.30
2008,07,11,00,09,12.30
2008,07,11,00,10,12.30
2008,07,11,00,11,12.30
2008,07,11,00,12,12.20
2008,07,11,00,13,12.20
2008,07,11,00,14,12.20
2008,07,11,00,15,12.20
2008,07,11,00,16,12.20
2008,07,11,00,17,12.20
2008,07,11,00,18,12.20
2008,07,11,00,19,12.20
2008,07,11,00,20,12.20
2008,07,11,00,21,12.10
2008,07,11,00,22,12.10
2008,07,11,00,23,12.10
2008,07,11,00,24,12.10
2008,07,11,00,25,12.10
2008,07,11,00,26,12.00
2008,07,11,00,27,12.00
2008,07,11,00,28,11.90
2008,07,11,00,29,11.90
2008,07,11,00,30,11.90
2008,07,11,00,31,11.90
2008,07,11,00,32,11.90
2008,07,11,00,33,11.90
2008,07,11,00,34,11.80
2008,07,11,00,35,11.80
2008,07,11,00,36,11.80
2008,07,11,00,37,11.80
2008,07,11,00,38,11.70
2008,07,11,00,39,11.70
2008,07,11,00,40,11.70
2008,07,11,00,41,11.60
2008,07,11,00,42,11.60
2008,07,11,00,43,11.60
2008,07,11,00,44,11.60
2008,07,11,00,45,11.50
2008,07,11,00,46,11.50
2008,07,11,00,47,11.50
2008,07,11,00,48,11.50
2008,07,11,00,49,11.50
2008,07,11,00,50,11.50
2008,07,11,00,51,11.50
2008,07,11,00,52,11.50
2008,07,11,00,53,11.50
2008,07,11,00,54,11.50
2008,07,11,00,55,11.50
2008,07,11,00,56,11.40
2008,07,11,00,57,11.40
2008,07,11,00,58,11.40
2008,07,11,00,59,11.40
2008,07,11,01,00,11.40
2008,07,11,01,01,11.40
2008,07,11,01,02,11.40
2008,07,11,01,03,11.30
2008,07,11,01,04,11.30
2008,07,11,01,05,11.30
2008,07,11,01,06,11.30
2008,07,11,01,07,11.30
2008,07,11,01,08,11.20
2008,07,11,01,09,11.20
2008,07,11,01,10,11.20
2008,07,11,01,11,11.20
2008,07,11,01,12,11.20
2008,07,11,01,13,11.10
2008,07,11,01,14,11.10
2008,07,11,01,15,11.10
2008,07,11,01,16,11.00
2008,07,11,01,17,11.00
2008,07,11,01,18,11.00
2008,07,11,01,19,11.00
2008,07,11,01,20,10.90
2008,07,11,01,21,10.90
2008,07,11,01,22,10.90
2008,07,11,01,23,10.90
2008,07,11,01,24,10.90
2008,07,11,01,25,10.80
2008,07,11,01,26,10.80
2008,07,11,01,27,10.80
2008,07,11,01,28,10.80
2008,07,11,01,29,10.80
2008,07,11,01,30,10.70
2008,07,11,01,31,10.70
2008,07,11,01,32,10.70
2008,07,11,01,33,10.70
2008,07,11,01,34,10.60
2008,07,11,01,35,10.60
2008,07,11,01,36,10.60
2008,07,11,01,37,10.60
2008,07,11,01,38,10.50
2008,07,11,01,39,10.50
2008,07,11,01,40,10.50
2008,07,11,01,41,10.40
2008,07,11,01,42,10.40
2008,07,11,01,43,10.40
2008,07,11,01,44,10.40
2008,07,11,01,45,10.40
2008,07,11,01,46,10.30
2008,07,11,01,47,10.30
2008,07,11,01,48,10.30
2008,07,11,01,49,10.20
2008,07,11,01,50,10.20
2008,07,11,01,51,10.20
2008,07,11,01,52,10.20
2008,07,11,01,53,10.10
2008,07,11,01,54,10.10
2008,07,11,01,55,10.10
2008,07,11,01,56,10.00
2008,07,11,01,57,10.00
2008,07,11,01,58,10.00
2008,07,11,01,59,9.90
2008,07,11,02,00,9.90
2008,07,11,02,01,9.90
2008,07,11,02,02,9.90
2008,07,11,02,03,9.90
2008,07,11,02,04,9.80
2008,07,11,02,05,9.80
2008,07,11,02,06,9.80
2008,07,11,02,07,9.80
2008,07,11,02,08,9.80
2008,07,11,02,09,9.80
2008,07,11,02,10,9.80
2008,07,11,02,11,9.80
2008,07,11,02,12,9.80
2008,07,11,02,13,9.70
2008,07,11,02,14,9.70
2008,07,11,02,15,9.70
2008,07,11,02,16,9.70
2008,07,11,02,17,9.60
2008,07,11,02,18,9.60
2008,07,11,02,19,9.60
2008,07,11,02,20,9.60
2008,07,11,02,21,9.50
2008,07,11,02,22,9.50
2008,07,11,02,23,9.40
2008,07,11,02,24,9.40
2008,07,11,02,25,9.40
2008,07,11,02,26,9.40
2008,07,11,02,27,9.30
2008,07,11,02,28,9.30
2008,07,11,02,29,9.30
2008,07,11,02,30,9.30
2008,07,11,02,31,9.30
2008,07,11,02,32,9.30
2008,07,11,02,33,9.20
2008,07,11,02,34,9.20
2008,07,11,02,35,9.20
2008,07,11,02,36,9.20
2008,07,11,02,37,9.20
2008,07,11,02,38,9.20
2008,07,11,02,39,9.20
2008,07,11,02,40,9.20
2008,07,11,02,41,9.20
2008,07,11,02,42,9.20
2008,07,11,02,43,9.20
2008,07,11,02,44,9.20
2008,07,11,02,45,9.20
2008,07,11,02,46,9.20
2008,07,11,02,47,9.20
2008,07,11,02,48,9.20
2008,07,11,02,49,9.10
2008,07,11,02,50,9.10
2008,07,11,02,51,9.10
2008,07,11,02,52,9.10
2008,07,11,02,53,9.00
2008,07,11,02,54,9.00
2008,07,11,02,55,8.90
2008,07,11,02,56,8.90
2008,07,11,02,57,8.90
2008,07,11,02,58,8.90
2008,07,11,02,59,8.90
2008,07,11,03,00,8.90
2008,07,11,03,01,8.90
2008,07,11,03,02,8.90
2008,07,11,03,03,8.80
2008,07,11,03,04,8.80
2008,07,11,03,05,8.80
2008,07,11,03,06,8.80
2008,07,11,03,07,8.80
2008,07,11,03,08,8.80
2008,07,11,03,09,8.80
2008,07,11,03,10,8.80
2008,07,11,03,11,8.80
2008,07,11,03,12,8.80
2008,07,11,03,13,8.80
2008,07,11,03,14,8.80
2008,07,11,03,15,8.80
2008,07,11,03,16,8.80
2008,07,11,03,17,8.80
2008,07,11,03,18,8.80
2008,07,11,03,19,8.80
2008,07,11,03,20,8.80
2008,07,11,03,21,8.80
2008,07,11,03,22,8.80
2008,07,11,03,23,8.80
2008,07,11,03,24,8.80
2008,07,11,03,25,8.80
2008,07,11,03,26,8.70
2008,07,11,03,27,8.70
2008,07,11,03,28,8.70
2008,07,11,03,29,8.70
2008,07,11,03,30,8.70
2008,07,11,03,31,8.70
2008,07,11,03,32,8.70
2008,07,11,03,33,8.70
2008,07,11,03,34,8.70
2008,07,11,03,35,8.80
2008,07,11,03,36,8.80
2008,07,11,03,37,8.80
2008,07,11,03,38,8.80
2008,07,11,03,39,8.80
2008,07,11,03,40,8.80
2008,07,11,03,41,8.80
2008,07,11,03,42,8.80
2008,07,11,03,43,8.80
2008,07,11,03,44,8.70
2008,07,11,03,45,8.70
2008,07,11,03,46,8.70
2008,07,11,03,47,8.70
2008,07,11,03,48,8.70
2008,07,11,03,49,8.70
2008,07,11,03,50,8.60
2008,07,11,03,51,8.60
2008,07,11,03,52,8.60
2008,07,11,03,53,8.60
2008,07,11,03,54,8.60
2008,07,11,03,55,8.60
2008,07,11,03,56,8.60
2008,07,11,03,57,8.60
2008,07,11,03,58,8.70
2008,07,11,03,59,8.70
2008,07,11,04,00,8.70
2008,07,11,04,01,8.70
2008,07,11,04,02,8.70
2008,07,11,04,03,8.70
2008,07,11,04,05,8.70
2008,07,11,04,06,8.70
2008,07,11,04,07,8.70
2008,07,11,04,08,8.70
2008,07,11,04,09,8.70
2008,07,11,04,10,8.70
2008,07,11,04,11,8.70
2008,07,11,04,12,8.70
2008,07,11,04,13,8.80
2008,07,11,04,14,8.80
2008,07,11,04,15,8.80
2008,07,11,04,16,8.80
2008,07,11,04,17,8.80
2008,07,11,04,18,8.80
2008,07,11,04,19,8.80
2008,07,11,04,20,8.80
2008,07,11,04,21,8.80
2008,07,11,04,22,8.80
2008,07,11,04,23,8.80
2008,07,11,04,24,8.80
2008,07,11,04,25,8.80
2008,07,11,04,26,8.80
2008,07,11,04,27,8.80
2008,07,11,04,28,8.80
2008,07,11,04,29,8.80
2008,07,11,04,30,8.80
2008,07,11,04,31,8.80
2008,07,11,04,32,8.80
2008,07,11,04,33,8.80
2008,07,11,04,34,8.80
2008,07,11,04,35,8.80
2008,07,11,04,36,8.80
2008,07,11,04,37,8.80
2008,07,11,04,38,8.80
2008,07,11,04,39,8.80
2008,07,11,04,40,8.80
2008,07,11,04,41,8.80
2008,07,11,04,42,8.80
2008,07,11,04,43,8.80
2008,07,11,04,44,8.80
2008,07,11,04,45,8.80
2008,07,11,04,46,8.80
2008,07,11,04,47,8.80
2008,07,11,04,48,8.80
2008,07,11,04,49,8.80
2008,07,11,04,50,8.70
2008,07,11,04,51,8.70
2008,07,11,04,52,8.70
2008,07,11,04,53,8.70
2008,07,11,04,54,8.70
2008,07,11,04,55,8.70
2008,07,11,04,56,8.70
2008,07,11,04,57,8.60
2008,07,11,04,58,8.60
2008,07,11,04,59,8.60
2008,07,11,05,00,8.60
2008,07,11,05,01,8.60
2008,07,11,05,02,8.60
2008,07,11,05,03,8.50
2008,07,11,05,04,8.50
2008,07,11,05,05,8.50
2008,07,11,05,06,8.50
2008,07,11,05,07,8.50
2008,07,11,05,08,8.50
2008,07,11,05,09,8.50
2008,07,11,05,10,8.50
2008,07,11,05,11,8.60
2008,07,11,05,12,8.60
2008,07,11,05,13,8.70
2008,07,11,05,14,8.80
2008,07,11,05,15,8.90
2008,07,11,05,16,8.90
2008,07,11,05,17,9.00
2008,07,11,05,18,9.10
2008,07,11,05,19,9.20
2008,07,11,05,20,9.20
2008,07,11,05,21,9.30
2008,07,11,05,22,9.40
2008,07,11,05,23,9.40
2008,07,11,05,24,9.50
2008,07,11,05,25,9.50
2008,07,11,05,26,9.60
2008,07,11,05,27,9.60
2008,07,11,05,28,9.60
2008,07,11,05,29,9.70
2008,07,11,05,30,9.70
2008,07,11,05,31,9.70
2008,07,11,05,32,9.70
2008,07,11,05,33,9.70
2008,07,11,05,34,9.70
2008,07,11,05,35,9.70
2008,07,11,05,36,9.70
2008,07,11,05,37,9.80
2008,07,11,05,38,9.80
2008,07,11,05,39,9.80
2008,07,11,05,40,9.80
2008,07,11,05,41,9.80
2008,07,11,05,42,9.80
2008,07,11,05,43,9.80
2008,07,11,05,44,9.90
2008,07,11,05,45,9.90
2008,07,11,05,46,9.90
2008,07,11,05,47,9.90
2008,07,11,05,48,9.90
2008,07,11,05,49,9.90
2008,07,11,05,50,9.90
2008,07,11,05,51,9.90
2008,07,11,05,52,9.90
2008,07,11,05,53,9.90
2008,07,11,05,54,9.90
2008,07,11,05,55,10.00
2008,07,11,05,56,10.00
2008,07,11,05,57,10.00
2008,07,11,05,58,10.10
2008,07,11,05,59,10.20
2008,07,11,06,00,10.20
2008,07,11,06,01,10.20
2008,07,11,06,02,10.20
2008,07,11,06,03,10.30
2008,07,11,06,04,10.30
2008,07,11,06,05,10.30
2008,07,11,06,06,10.30
2008,07,11,06,07,10.30
2008,07,11,06,08,10.30
2008,07,11,06,09,10.30
2008,07,11,06,10,10.30
2008,07,11,06,11,10.30
2008,07,11,06,12,10.30
2008,07,11,06,13,10.30
2008,07,11,06,14,10.20
2008,07,11,06,15,10.20
2008,07,11,06,16,10.20
2008,07,11,06,17,10.20
2008,07,11,06,18,10.30
2008,07,11,06,19,10.30
2008,07,11,06,20,10.30
2008,07,11,06,21,10.40
2008,07,11,06,22,10.40
2008,07,11,06,23,10.40
2008,07,11,06,24,10.50
2008,07,11,06,25,10.50
2008,07,11,06,26,10.60
2008,07,11,06,27,10.60
2008,07,11,06,28,10.60
2008,07,11,06,29,10.60
2008,07,11,06,30,10.60
2008,07,11,06,31,10.70
2008,07,11,06,32,10.70
2008,07,11,06,33,10.70
2008,07,11,06,34,10.80
2008,07,11,06,35,10.80
2008,07,11,06,36,10.80
2008,07,11,06,37,10.90
2008,07,11,06,38,10.90
2008,07,11,06,39,10.90
2008,07,11,06,40,11.00
2008,07,11,06,41,11.00
2008,07,11,06,42,11.00
2008,07,11,06,43,11.10
2008,07,11,06,44,11.10
2008,07,11,06,45,11.10
2008,07,11,06,46,11.10
2008,07,11,06,47,11.20
2008,07,11,06,48,11.20
2008,07,11,06,49,11.20
2008,07,11,06,50,11.30
2008,07,11,06,51,11.30
2008,07,11,06,52,11.30
2008,07,11,06,53,11.30
2008,07,11,06,54,11.30
2008,07,11,06,55,11.40
2008,07,11,06,56,11.40
2008,07,11,06,57,11.40
2008,07,11,06,58,11.50
2008,07,11,06,59,11.50
2008,07,11,07,00,11.60
2008,07,11,07,01,11.60
2008,07,11,07,02,11.60
2008,07,11,07,03,11.70
2008,07,11,07,04,11.70
2008,07,11,07,05,11.70
2008,07,11,07,06,11.80
2008,07,11,07,07,11.80
2008,07,11,07,08,11.80
2008,07,11,07,09,11.90
2008,07,11,07,10,11.90
2008,07,11,07,11,11.90
2008,07,11,07,12,11.90
2008,07,11,07,13,11.90
2008,07,11,07,14,11.90
2008,07,11,07,15,11.90
2008,07,11,07,16,11.90
2008,07,11,07,17,11.80
2008,07,11,07,18,11.80
2008,07,11,07,19,11.80
2008,07,11,07,20,11.80
2008,07,11,07,21,11.80
2008,07,11,07,22,11.80
2008,07,11,07,23,11.80
2008,07,11,07,24,11.80
2008,07,11,07,25,11.80
2008,07,11,07,26,11.90
2008,07,11,07,27,11.90
2008,07,11,07,28,11.90
2008,07,11,07,29,11.90
2008,07,11,07,30,11.90
2008,07,11,07,31,12.00
2008,07,11,07,32,12.00
2008,07,11,07,33,12.00
2008,07,11,07,34,12.00
2008,07,11,07,35,12.00
2008,07,11,07,36,12.00
2008,07,11,07,37,12.10
2008,07,11,07,38,12.00
2008,07,11,07,39,12.10
2008,07,11,07,40,12.10
2008,07,11,07,41,12.10
2008,07,11,07,42,12.10
2008,07,11,07,43,12.00
2008,07,11,07,44,12.00
2008,07,11,07,45,12.00
2008,07,11,07,46,11.90
2008,07,11,07,47,11.90
2008,07,11,07,48,12.00
2008,07,11,07,49,12.00
2008,07,11,07,50,12.10
2008,07,11,07,51,12.20
2008,07,11,07,52,12.20
2008,07,11,07,53,12.30
2008,07,11,07,54,12.40
2008,07,11,07,55,12.40
2008,07,11,07,56,12.50
2008,07,11,07,57,12.60
2008,07,11,07,58,12.60
2008,07,11,07,59,12.60
2008,07,11,08,00,12.70
2008,07,11,08,01,12.70
2008,07,11,08,02,12.70
2008,07,11,08,03,12.70
2008,07,11,08,04,12.70
2008,07,11,08,05,12.80
2008,07,11,08,06,12.80
2008,07,11,08,07,12.80
2008,07,11,08,08,12.80
2008,07,11,08,09,12.90
2008,07,11,08,10,12.90
2008,07,11,08,11,13.00
2008,07,11,08,12,13.10
2008,07,11,08,13,13.10
2008,07,11,08,14,13.20
2008,07,11,08,15,13.20
2008,07,11,08,16,13.20
2008,07,11,08,17,13.30
2008,07,11,08,18,13.40
2008,07,11,08,19,13.50
2008,07,11,08,20,13.50
2008,07,11,08,21,13.60
2008,07,11,08,22,13.70
2008,07,11,08,23,13.80
2008,07,11,08,24,13.80
2008,07,11,08,25,13.90
2008,07,11,08,26,13.90
2008,07,11,08,27,13.90
2008,07,11,08,28,13.90
2008,07,11,08,29,13.90
2008,07,11,08,30,13.90
2008,07,11,08,31,14.00
2008,07,11,08,32,14.00
2008,07,11,08,33,14.10
2008,07,11,08,34,14.20
2008,07,11,08,35,14.20
2008,07,11,08,36,14.30
2008,07,11,08,37,14.30
2008,07,11,08,38,14.50
2008,07,11,08,39,14.60
2008,07,11,08,40,14.80
2008,07,11,08,41,14.90
2008,07,11,08,42,15.00
2008,07,11,08,43,15.00
2008,07,11,08,44,15.00
2008,07,11,08,45,15.00
2008,07,11,08,46,15.20
2008,07,11,08,47,15.30
2008,07,11,08,48,15.40
2008,07,11,08,49,15.50
2008,07,11,08,50,15.50
2008,07,11,08,51,15.50
2008,07,11,08,52,15.60
2008,07,11,08,53,15.70
2008,07,11,08,54,15.80
2008,07,11,08,55,15.80
2008,07,11,08,56,15.90
2008,07,11,08,57,15.90
2008,07,11,08,58,15.90
2008,07,11,08,59,16.00
2008,07,11,09,00,16.00
2008,07,11,09,01,16.10
2008,07,11,09,02,16.20
2008,07,11,09,03,16.20
2008,07,11,09,04,16.30
2008,07,11,09,05,16.30
2008,07,11,09,06,16.40
2008,07,11,09,07,16.50
2008,07,11,09,08,16.60
2008,07,11,09,09,16.80
2008,07,11,09,10,16.80
2008,07,11,09,11,17.00
2008,07,11,09,12,17.20
2008,07,11,09,13,17.30
2008,07,11,09,14,17.40
2008,07,11,09,15,17.40
2008,07,11,09,16,17.50
2008,07,11,09,17,17.60
2008,07,11,09,18,17.70
2008,07,11,09,19,17.80
2008,07,11,09,20,17.80
2008,07,11,09,21,17.80
2008,07,11,09,22,17.80
2008,07,11,09,23,17.90
2008,07,11,09,24,17.90
2008,07,11,09,25,18.00
2008,07,11,09,26,18.00
2008,07,11,09,27,18.00
2008,07,11,09,28,18.00
2008,07,11,09,29,18.00
2008,07,11,09,30,18.10
2008,07,11,09,31,18.10
2008,07,11,09,32,18.20
2008,07,11,09,33,18.20
2008,07,11,09,34,18.20
2008,07,11,09,35,18.20
2008,07,11,09,36,18.30
2008,07,11,09,37,18.40
2008,07,11,09,38,18.50
2008,07,11,09,39,18.50
2008,07,11,09,40,18.50
2008,07,11,09,41,18.50
2008,07,11,09,42,18.60
2008,07,11,09,43,18.50
2008,07,11,09,44,18.50
2008,07,11,09,45,18.50
2008,07,11,09,46,18.50
2008,07,11,09,47,18.50
2008,07,11,09,48,18.40
2008,07,11,09,49,18.40
2008,07,11,09,50,18.30
2008,07,11,09,51,18.30
2008,07,11,09,52,18.30
2008,07,11,09,53,18.30
2008,07,11,09,54,18.40
2008,07,11,09,55,18.50
2008,07,11,09,56,18.60
2008,07,11,09,57,18.70
2008,07,11,09,58,18.80
2008,07,11,09,59,18.90
2008,07,11,10,00,19.00
2008,07,11,10,01,19.10
2008,07,11,10,02,19.20
2008,07,11,10,03,19.20
2008,07,11,10,04,19.20
2008,07,11,10,05,19.30
2008,07,11,10,06,19.30
2008,07,11,10,07,19.20
2008,07,11,10,08,19.20
2008,07,11,10,09,19.20
2008,07,11,10,10,19.10
2008,07,11,10,11,19.10
2008,07,11,10,12,19.20
2008,07,11,10,13,19.20
2008,07,11,10,14,19.30
2008,07,11,10,15,19.30
2008,07,11,10,16,19.30
2008,07,11,10,17,19.40
2008,07,11,10,18,19.40
2008,07,11,10,19,19.40
2008,07,11,10,20,19.40
2008,07,11,10,21,19.40
2008,07,11,10,22,19.30
2008,07,11,10,23,19.20
2008,07,11,10,24,19.20
2008,07,11,10,25,19.20
2008,07,11,10,26,19.20
2008,07,11,10,27,19.20
2008,07,11,10,28,19.20
2008,07,11,10,29,19.20
2008,07,11,10,30,19.20
2008,07,11,10,31,19.30
2008,07,11,10,32,19.40
2008,07,11,10,33,19.40
2008,07,11,10,34,19.40
2008,07,11,10,35,19.30
2008,07,11,10,36,19.30
2008,07,11,10,37,19.30
2008,07,11,10,38,19.40
2008,07,11,10,39,19.40
2008,07,11,10,40,19.20
2008,07,11,10,41,19.20
2008,07,11,10,42,19.20
2008,07,11,10,43,19.30
2008,07,11,10,44,19.40
2008,07,11,10,45,19.50
2008,07,11,10,46,19.60
2008,07,11,10,47,19.60
2008,07,11,10,48,19.60
2008,07,11,10,49,19.60
2008,07,11,10,50,19.60
2008,07,11,10,51,19.60
2008,07,11,10,52,19.70
2008,07,11,10,53,19.70
2008,07,11,10,54,19.70
2008,07,11,10,55,19.60
2008,07,11,10,56,19.50
2008,07,11,10,57,19.40
2008,07,11,10,58,19.30
2008,07,11,10,59,19.40
2008,07,11,11,00,19.50
2008,07,11,11,01,19.50
2008,07,11,11,02,19.40
2008,07,11,11,03,19.20
2008,07,11,11,04,19.00
2008,07,11,11,05,18.90
2008,07,11,11,06,18.90
2008,07,11,11,07,19.00
2008,07,11,11,08,19.10
2008,07,11,11,09,19.20
2008,07,11,11,10,19.20
2008,07,11,11,11,19.30
2008,07,11,11,12,19.30
2008,07,11,11,13,19.40
2008,07,11,11,14,19.40
2008,07,11,11,15,19.50
2008,07,11,11,16,19.40
2008,07,11,11,17,19.30
2008,07,11,11,18,19.20
2008,07,11,11,19,19.10
2008,07,11,11,20,19.00
2008,07,11,11,21,18.90
2008,07,11,11,22,18.90
2008,07,11,11,23,19.00
2008,07,11,11,24,19.10
2008,07,11,11,25,19.20
2008,07,11,11,26,19.30
2008,07,11,11,27,19.40
2008,07,11,11,28,19.50
2008,07,11,11,29,19.50
2008,07,11,11,30,19.30
2008,07,11,11,31,19.20
2008,07,11,11,32,19.10
2008,07,11,11,33,19.10
2008,07,11,11,34,19.10
2008,07,11,11,35,19.10
2008,07,11,11,36,19.20
2008,07,11,11,37,19.30
2008,07,11,11,38,19.40
2008,07,11,11,39,19.50
2008,07,11,11,40,19.50
2008,07,11,11,41,19.60
2008,07,11,11,42,19.60
2008,07,11,11,43,19.50
2008,07,11,11,44,19.50
2008,07,11,11,45,19.50
2008,07,11,11,46,19.50
2008,07,11,11,47,19.60
2008,07,11,11,48,19.60
2008,07,11,11,49,19.60
2008,07,11,11,50,19.60
2008,07,11,11,51,19.50
2008,07,11,11,52,19.50
2008,07,11,11,53,19.50
2008,07,11,11,54,19.60
2008,07,11,11,55,19.70
2008,07,11,11,56,19.70
2008,07,11,11,57,19.80
2008,07,11,11,58,19.80
2008,07,11,11,59,19.90
2008,07,11,12,00,19.80
2008,07,11,12,01,19.60
2008,07,11,12,02,19.50
2008,07,11,12,03,19.50
2008,07,11,12,04,19.40
2008,07,11,12,05,19.30
2008,07,11,12,06,19.40
2008,07,11,12,07,19.50
2008,07,11,12,08,19.70
2008,07,11,12,09,19.90
2008,07,11,12,10,19.90
2008,07,11,12,11,20.10
2008,07,11,12,12,20.20
2008,07,11,12,13,20.20
2008,07,11,12,14,20.20
2008,07,11,12,15,20.30
2008,07,11,12,16,20.30
2008,07,11,12,17,20.30
2008,07,11,12,18,20.30
2008,07,11,12,19,20.30
2008,07,11,12,20,20.30
2008,07,11,12,21,20.30
2008,07,11,12,22,20.30
2008,07,11,12,23,20.30
2008,07,11,12,24,20.30
2008,07,11,12,25,20.40
2008,07,11,12,26,20.40
2008,07,11,12,27,20.30
2008,07,11,12,28,20.30
2008,07,11,12,29,20.20
2008,07,11,12,30,20.10
2008,07,11,12,31,19.80
2008,07,11,12,32,19.70
2008,07,11,12,33,19.60
2008,07,11,12,34,19.70
2008,07,11,12,35,19.80
2008,07,11,12,36,19.90
2008,07,11,12,37,20.00
2008,07,11,12,38,20.00
2008,07,11,12,39,20.00
2008,07,11,12,40,20.10
2008,07,11,12,41,20.20
2008,07,11,12,42,20.30
2008,07,11,12,43,20.40
2008,07,11,12,44,20.40
2008,07,11,12,45,20.50
2008,07,11,12,46,20.50
2008,07,11,12,47,20.60
2008,07,11,12,48,20.60
2008,07,11,12,49,20.60
2008,07,11,12,50,20.70
2008,07,11,12,51,20.80
2008,07,11,12,52,20.70
2008,07,11,12,53,20.70
2008,07,11,12,54,20.70
2008,07,11,12,55,20.70
2008,07,11,12,56,20.70
2008,07,11,12,57,20.70
2008,07,11,12,58,20.60
2008,07,11,12,59,20.40
2008,07,11,13,00,20.30
2008,07,11,13,01,20.30
2008,07,11,13,02,20.30
2008,07,11,13,03,20.40
2008,07,11,13,04,20.40
2008,07,11,13,05,20.40
2008,07,11,13,06,20.40
2008,07,11,13,07,20.20
2008,07,11,13,08,20.10
2008,07,11,13,09,20.10
2008,07,11,13,10,20.10
2008,07,11,13,11,20.20
2008,07,11,13,12,20.40
2008,07,11,13,13,20.40
2008,07,11,13,14,20.40
2008,07,11,13,15,20.30
2008,07,11,13,16,20.30
2008,07,11,13,17,20.20
2008,07,11,13,18,20.20
2008,07,11,13,19,20.20
2008,07,11,13,20,20.00
2008,07,11,13,21,19.80
2008,07,11,13,22,19.70
2008,07,11,13,23,19.60
2008,07,11,13,24,19.50
2008,07,11,13,25,19.50
2008,07,11,13,26,19.60
2008,07,11,13,27,19.60
2008,07,11,13,28,19.70
2008,07,11,13,29,19.80
2008,07,11,13,30,19.80
2008,07,11,13,31,19.90
2008,07,11,13,32,19.90
2008,07,11,13,33,20.00
2008,07,11,13,34,20.10
2008,07,11,13,35,20.20
2008,07,11,13,36,20.10
2008,07,11,13,37,20.00
2008,07,11,13,38,20.00
2008,07,11,13,39,20.00
2008,07,11,13,40,19.90
2008,07,11,13,41,19.90
2008,07,11,13,42,20.00
2008,07,11,13,43,20.00
2008,07,11,13,44,20.00
2008,07,11,13,45,19.90
2008,07,11,13,46,19.80
2008,07,11,13,47,19.80
2008,07,11,13,48,19.80
2008,07,11,13,49,19.90
2008,07,11,13,50,20.00
2008,07,11,13,51,20.10
2008,07,11,13,52,20.20
2008,07,11,13,53,20.40
2008,07,11,13,54,20.40
2008,07,11,13,55,20.20
2008,07,11,13,56,20.10
2008,07,11,13,57,20.00
2008,07,11,13,58,20.00
2008,07,11,13,59,20.00
2008,07,11,14,00,20.10
2008,07,11,14,01,20.20
2008,07,11,14,02,20.30
2008,07,11,14,03,20.30
2008,07,11,14,04,20.20
2008,07,11,14,05,20.20
2008,07,11,14,06,20.20
2008,07,11,14,07,20.30
2008,07,11,14,08,20.50
2008,07,11,14,09,20.60
2008,07,11,14,10,20.50
2008,07,11,14,11,20.40
2008,07,11,14,12,20.40
2008,07,11,14,13,20.40
2008,07,11,14,14,20.40
2008,07,11,14,15,20.40
2008,07,11,14,16,20.50
2008,07,11,14,17,20.60
2008,07,11,14,18,20.60
2008,07,11,14,19,20.60
2008,07,11,14,20,20.60
2008,07,11,14,21,20.60
2008,07,11,14,22,20.80
2008,07,11,14,23,20.90
2008,07,11,14,24,21.10
2008,07,11,14,25,21.10
2008,07,11,14,26,21.10
2008,07,11,14,27,21.10
2008,07,11,14,28,21.10
2008,07,11,14,29,21.20
2008,07,11,14,30,21.10
2008,07,11,14,31,21.00
2008,07,11,14,32,21.00
2008,07,11,14,33,21.00
2008,07,11,14,34,21.00
2008,07,11,14,35,21.10
2008,07,11,14,36,21.10
2008,07,11,14,37,21.10
2008,07,11,14,38,21.20
2008,07,11,14,39,21.20
2008,07,11,14,40,21.10
2008,07,11,14,41,21.00
2008,07,11,14,42,21.00
2008,07,11,14,43,21.10
2008,07,11,14,44,21.10
2008,07,11,14,45,21.20
2008,07,11,14,46,21.20
2008,07,11,14,47,21.20
2008,07,11,14,48,21.20
2008,07,11,14,49,21.30
2008,07,11,14,50,21.30
2008,07,11,14,51,21.20
2008,07,11,14,52,21.20
2008,07,11,14,53,21.20
2008,07,11,14,54,21.20
2008,07,11,14,55,21.10
2008,07,11,14,56,21.20
2008,07,11,14,57,21.20
2008,07,11,14,58,21.30
2008,07,11,14,59,21.40
2008,07,11,15,00,21.50
2008,07,11,15,01,21.50
2008,07,11,15,02,21.50
2008,07,11,15,03,21.50
2008,07,11,15,04,21.50
2008,07,11,15,05,21.50
2008,07,11,15,06,21.60
2008,07,11,15,07,21.60
2008,07,11,15,08,21.60
2008,07,11,15,09,21.70
2008,07,11,15,10,21.80
2008,07,11,15,11,21.80
2008,07,11,15,12,21.80
2008,07,11,15,13,21.80
2008,07,11,15,14,21.90
2008,07,11,15,15,22.00
2008,07,11,15,16,22.10
2008,07,11,15,17,22.20
2008,07,11,15,18,22.30
2008,07,11,15,19,22.40
2008,07,11,15,20,22.30
2008,07,11,15,21,22.20
2008,07,11,15,22,22.10
2008,07,11,15,23,22.10
2008,07,11,15,24,22.10
2008,07,11,15,25,22.10
2008,07,11,15,26,22.10
2008,07,11,15,27,22.20
2008,07,11,15,28,22.30
2008,07,11,15,29,22.30
2008,07,11,15,30,22.40
2008,07,11,15,31,22.50
2008,07,11,15,32,22.60
2008,07,11,15,33,22.60
2008,07,11,15,34,22.60
2008,07,11,15,35,22.50
2008,07,11,15,36,22.60
2008,07,11,15,37,22.60
2008,07,11,15,38,22.70
2008,07,11,15,39,22.60
2008,07,11,15,40,22.60
2008,07,11,15,41,22.70
2008,07,11,15,42,22.70
2008,07,11,15,43,22.60
2008,07,11,15,44,22.60
2008,07,11,15,45,22.50
2008,07,11,15,46,22.40
2008,07,11,15,47,22.40
2008,07,11,15,48,22.40
2008,07,11,15,49,22.50
2008,07,11,15,50,22.60
2008,07,11,15,51,22.60
2008,07,11,15,52,22.60
2008,07,11,15,53,22.40
2008,07,11,15,54,22.20
2008,07,11,15,55,22.10
2008,07,11,15,56,22.10
2008,07,11,15,57,22.10
2008,07,11,15,58,22.10
2008,07,11,15,59,22.00
2008,07,11,16,00,22.00
2008,07,11,16,01,21.80
2008,07,11,16,02,21.80
2008,07,11,16,03,21.80
2008,07,11,16,04,21.90
2008,07,11,16,05,21.90
2008,07,11,16,06,22.00
2008,07,11,16,07,22.00
2008,07,11,16,08,22.20
2008,07,11,16,09,22.30
2008,07,11,16,10,22.10
2008,07,11,16,11,21.90
2008,07,11,16,12,21.80
2008,07,11,16,13,21.80
2008,07,11,16,14,21.70
2008,07,11,16,15,21.70
2008,07,11,16,16,21.80
2008,07,11,16,17,21.80
2008,07,11,16,18,21.90
2008,07,11,16,19,21.90
2008,07,11,16,20,22.00
2008,07,11,16,21,22.00
2008,07,11,16,22,22.00
2008,07,11,16,23,22.00
2008,07,11,16,24,22.00
2008,07,11,16,25,21.90
2008,07,11,16,26,21.80
2008,07,11,16,27,21.80
2008,07,11,16,28,21.70
2008,07,11,16,29,21.70
2008,07,11,16,30,21.80
2008,07,11,16,31,21.90
2008,07,11,16,32,22.00
2008,07,11,16,33,22.10
2008,07,11,16,34,22.30
2008,07,11,16,35,22.40
2008,07,11,16,36,22.40
2008,07,11,16,37,22.40
2008,07,11,16,38,22.50
2008,07,11,16,39,22.40
2008,07,11,16,40,22.40
2008,07,11,16,41,22.40
2008,07,11,16,42,22.30
2008,07,11,16,43,22.30
2008,07,11,16,44,22.30
2008,07,11,16,45,22.30
2008,07,11,16,46,22.20
2008,07,11,16,47,22.20
2008,07,11,16,48,22.20
2008,07,11,16,49,22.30
2008,07,11,16,50,22.30
2008,07,11,16,51,22.30
2008,07,11,16,52,22.20
2008,07,11,16,53,22.10
2008,07,11,16,54,22.20
2008,07,11,16,55,22.20
2008,07,11,16,56,22.30
2008,07,11,16,57,22.30
2008,07,11,16,58,22.30
2008,07,11,16,59,22.20
2008,07,11,17,00,22.20
2008,07,11,17,01,22.30
2008,07,11,17,02,22.30
2008,07,11,17,03,22.40
2008,07,11,17,04,22.50
2008,07,11,17,05,22.60
2008,07,11,17,06,22.60
2008,07,11,17,07,22.60
2008,07,11,17,08,22.60
2008,07,11,17,09,22.50
2008,07,11,17,10,22.60
2008,07,11,17,11,22.60
2008,07,11,17,12,22.50
2008,07,11,17,13,22.40
2008,07,11,17,14,22.40
2008,07,11,17,15,22.40
2008,07,11,17,16,22.40
2008,07,11,17,17,22.40
2008,07,11,17,18,22.40
2008,07,11,17,19,22.40
2008,07,11,17,20,22.40
2008,07,11,17,21,22.30
2008,07,11,17,22,22.30
2008,07,11,17,23,22.30
2008,07,11,17,24,22.30
2008,07,11,17,25,22.30
2008,07,11,17,26,22.30
2008,07,11,17,27,22.30
2008,07,11,17,28,22.30
2008,07,11,17,29,22.30
2008,07,11,17,30,22.30